Flag for Greece Weather past 2 weeks in Rhodes, Rhodes, Greece

Now
77 °F

Clear.


Feels Like: 79 °F
Forecast: 75 / 83 °F
Wind: 10 mph from West

Location: Rhodes Airport

Current Time: Sep 19, 2014 at 7:21:32 AM

Latest Report: Sep 19, 2014 at 6:50 AM


Visibility: 10 mi

Pressure: 29.92 "Hg

Humidity: 57%

Dew point: 61 °F

Location of RhodesLocation

Historic Weather in Rhodes — Graph

°F

Rhodes temperature yesterday

Maximum temperature yesterday: 81 °F (at 3:50 PM)
Minimum temperature yesterday: 73 °F (at 2:50 AM)
Average temperature yesterday: 77 °F

Past Weeks' High & Low Weather Summary

 TemperatureHumidityPressure
High86 °F (Sep 14, 2:50 PM)89% (Sep 16, 1:50 AM)29.92 "Hg (Sep 16, 1:50 AM)
Low73 °F (Sep 17, 2:50 AM)54% (Sep 18, 12:20 PM)29.65 "Hg (Sep 5, 5:50 PM)
Average79 °F70%29.80 "Hg
* Reported Sep 4 6:20 AM — Sep 19 6:20 AM, Rhodes, Weather by CustomWeather, © 2014

Note: Actual official high and low records may vary slightly from our data, if they occured in-between our weather recording intervals... More about our weather records

Advertising

Rhodes weather history for previous 24 hours

 ConditionsComfort  
Time TempWeatherWind HumidityBarometerVisibility
6:20 AM
Sep 19
77 °FClear.12 mph57%29.89 "Hg10 mi
5:50 AM77 °FClear.12 mph57%29.89 "Hg10 mi
4:50 AM77 °FClear.14 mph57%29.89 "Hg10 mi
4:20 AM77 °FClear.14 mph57%29.89 "Hg10 mi
2:50 AM77 °FClear.10 mph57%29.89 "Hg10 mi
2:20 AM77 °FClear.10 mph57%29.89 "Hg10 mi
1:50 AM77 °FClear.10 mph57%29.89 "Hg10 mi
1:20 AM77 °FClear.10 mph57%29.89 "Hg10 mi
12:50 AM77 °FClear.12 mph61%29.89 "Hg10 mi
12:20 AM77 °FClear.14 mph61%29.89 "Hg10 mi
11:50 PM
Sep 18
77 °FClear.15 mph61%29.89 "Hg10 mi
11:20 PM77 °FClear.17 mph69%29.89 "Hg10 mi
10:50 PM77 °FClear.15 mph69%29.89 "Hg10 mi
10:20 PM77 °FClear.16 mph69%29.89 "Hg10 mi
9:50 PM77 °FClear.16 mph69%29.89 "Hg10 mi
9:20 PM77 °FClear.15 mph69%29.89 "Hg10 mi
8:50 PM77 °FClear.15 mph69%29.89 "Hg10 mi
8:20 PM79 °FClear.16 mph61%29.86 "Hg10 mi
7:50 PM79 °FSunny.16 mph61%29.86 "Hg10 mi
7:20 PM81 °FSunny.17 mph58%29.86 "Hg10 mi
6:50 PM81 °FSunny.17 mph58%29.86 "Hg10 mi
6:20 PM81 °FSunny.17 mph58%29.86 "Hg10 mi
5:50 PM81 °FSunny.16 mph58%29.86 "Hg10 mi
5:20 PM81 °FPassing clouds.15 mph54%29.86 "HgN/A
4:50 PM81 °FPassing clouds.15 mph54%29.86 "HgN/A
4:20 PM81 °FPassing clouds.17 mph54%29.86 "HgN/A
3:50 PM81 °FPassing clouds.18 mph54%29.86 "HgN/A
3:20 PM79 °FPassing clouds.17 mph54%29.86 "HgN/A
2:50 PM79 °FPassing clouds.17 mph54%29.86 "HgN/A
2:20 PM79 °FPassing clouds.15 mph54%29.86 "HgN/A
1:50 PM79 °FPassing clouds.12 mph54%29.86 "HgN/A
1:20 PM79 °FPassing clouds.13 mph54%29.86 "HgN/A
12:50 PM79 °FPassing clouds.12 mph54%29.86 "HgN/A
12:20 PM79 °FPassing clouds.10 mph54%29.86 "HgN/A
11:50 AM77 °FPassing clouds.10 mph57%29.86 "HgN/A
11:20 AM77 °FPassing clouds.7 mph57%29.86 "HgN/A
10:50 AM77 °FPassing clouds.8 mph57%29.86 "HgN/A
10:20 AM77 °FPassing clouds.9 mph57%29.86 "HgN/A
9:50 AM77 °FPassing clouds.12 mph61%29.86 "HgN/A
9:20 AM77 °FPassing clouds.13 mph61%29.83 "HgN/A
8:50 AM75 °FPassing clouds.12 mph65%29.83 "HgN/A
8:20 AM75 °FPassing clouds.6 mph69%29.80 "HgN/A
7:50 AM75 °FPassing clouds.8 mph69%29.80 "HgN/A
7:20 AM75 °FPassing clouds.8 mph74%29.80 "HgN/A
Weather by CustomWeather, © 2014

See weather overviewHow to use our weather pages